Data supplied by UK-AIR on 22/3/2019
All Data GMT hour ending 
Status: R =Ratified P=Provisional,P*=As supplied
,,Shaw Crompton Way,,,,,,,,,,,,,,,,,,,,,,,
Date,time,"Nitric oxide",status,unit,"Nitrogen dioxide",status,unit,"Nitrogen oxides as nitrogen dioxide",status,unit
 
01-01-2018,01:00,3.76887,R,ugm-3,13.93026,R,ugm-3,19.70912,R,ugm-3
01-01-2018,02:00,4.05512,R,ugm-3,17.14120,R,ugm-3,23.35896,R,ugm-3
01-01-2018,03:00,4.22209,R,ugm-3,14.27554,R,ugm-3,20.74933,R,ugm-3
01-01-2018,04:00,3.07712,R,ugm-3,12.85579,R,ugm-3,17.57397,R,ugm-3
01-01-2018,05:00,2.25417,R,ugm-3,10.94227,R,ugm-3,14.39861,R,ugm-3
01-01-2018,06:00,2.36151,R,ugm-3,12.85809,R,ugm-3,16.47902,R,ugm-3
01-01-2018,07:00,1.25232,R,ugm-3,9.35781,R,ugm-3,11.27800,R,ugm-3
01-01-2018,08:00,2.68353,R,ugm-3,14.11625,R,ugm-3,18.23094,R,ugm-3
01-01-2018,09:00,3.22024,R,ugm-3,20.41049,R,ugm-3,25.34812,R,ugm-3
01-01-2018,10:00,3.14868,R,ugm-3,22.05315,R,ugm-3,26.88105,R,ugm-3
01-01-2018,11:00,7.90748,R,ugm-3,26.30816,R,ugm-3,38.43279,R,ugm-3
01-01-2018,12:00,15.13512,R,ugm-3,34.55181,R,ugm-3,57.75868,R,ugm-3
01-01-2018,13:00,13.45344,R,ugm-3,23.33397,R,ugm-3,43.96229,R,ugm-3
01-01-2018,14:00,10.66257,R,ugm-3,28.10597,R,ugm-3,44.45502,R,ugm-3
01-01-2018,15:00,10.76991,R,ugm-3,28.76260,R,ugm-3,45.27623,R,ugm-3
01-01-2018,16:00,17.46085,R,ugm-3,34.48959,R,ugm-3,61.26252,R,ugm-3
01-01-2018,17:00,6.19002,R,ugm-3,12.18881,R,ugm-3,21.68003,R,ugm-3
01-01-2018,18:00,7.58545,R,ugm-3,14.53847,R,ugm-3,26.16933,R,ugm-3
01-01-2018,19:00,5.08082,R,ugm-3,11.42591,R,ugm-3,19.21639,R,ugm-3
01-01-2018,20:00,6.22580,R,ugm-3,12.95516,R,ugm-3,22.50125,R,ugm-3
01-01-2018,21:00,8.37262,R,ugm-3,13.11250,R,ugm-3,25.95034,R,ugm-3
01-01-2018,22:00,2.25417,R,ugm-3,7.32893,R,ugm-3,10.78527,R,ugm-3
01-01-2018,23:00,5.51019,R,ugm-3,9.17988,R,ugm-3,17.62871,R,ugm-3
01-01-2018,24:00,2.68353,R,ugm-3,6.94431,R,ugm-3,11.05901,R,ugm-3
02-01-2018,01:00,5.69843,R,ugm-3,9.65046,R,ugm-3,18.38793,R,ugm-3
02-01-2018,02:00,1.48446,R,ugm-3,3.73107,R,ugm-3,6.00721,R,ugm-3
02-01-2018,03:00,2.98090,R,ugm-3,4.93467,R,ugm-3,9.50531,R,ugm-3
02-01-2018,04:00,5.71040,R,ugm-3,10.74930,R,ugm-3,19.50513,R,ugm-3
02-01-2018,05:00,6.17729,R,ugm-3,17.01131,R,ugm-3,26.48302,R,ugm-3
02-01-2018,06:00,17.05937,R,ugm-3,36.09424,R,ugm-3,62.25157,R,ugm-3
02-01-2018,07:00,26.79219,R,ugm-3,43.09345,R,ugm-3,84.17423,R,ugm-3
02-01-2018,08:00,37.81793,R,ugm-3,51.51674,R,ugm-3,109.50342,R,ugm-3
02-01-2018,09:00,19.78887,R,ugm-3,52.12846,R,ugm-3,82.47097,R,ugm-3
02-01-2018,10:00,10.05605,R,ugm-3,29.14054,R,ugm-3,44.55960,R,ugm-3
02-01-2018,11:00,12.46232,R,ugm-3,22.15434,R,ugm-3,41.26296,R,ugm-3
02-01-2018,12:00,12.92921,R,ugm-3,29.35039,R,ugm-3,49.17489,R,ugm-3
02-01-2018,13:00,17.56217,R,ugm-3,37.19138,R,ugm-3,64.11967,R,ugm-3
02-01-2018,14:00,27.40273,R,ugm-3,48.47585,R,ugm-3,90.49280,R,ugm-3
02-01-2018,15:00,46.29374,R,ugm-3,60.22356,R,ugm-3,131.20631,R,ugm-3
02-01-2018,16:00,35.19617,R,ugm-3,60.15201,R,ugm-3,114.11872,R,ugm-3
02-01-2018,17:00,24.20635,R,ugm-3,57.93727,R,ugm-3,95.05315,R,ugm-3
02-01-2018,18:00,15.22773,R,ugm-3,57.96828,R,ugm-3,81.31714,R,ugm-3
02-01-2018,19:00,10.88208,R,ugm-3,36.93973,R,ugm-3,53.62536,R,ugm-3
02-01-2018,20:00,7.36247,R,ugm-3,22.06206,R,ugm-3,33.35102,R,ugm-3
02-01-2018,21:00,5.60266,R,ugm-3,13.38699,R,ugm-3,21.97761,R,ugm-3
02-01-2018,22:00,5.35126,R,ugm-3,10.53077,R,ugm-3,18.73591,R,ugm-3
02-01-2018,23:00,4.30974,R,ugm-3,10.86403,R,ugm-3,17.47220,R,ugm-3
02-01-2018,24:00,2.33444,R,ugm-3,5.10173,R,ugm-3,8.68116,R,ugm-3
03-01-2018,01:00,2.06678,R,ugm-3,4.25657,R,ugm-3,7.42558,R,ugm-3
03-01-2018,02:00,,,,,,,,,
03-01-2018,03:00,0.75702,R,ugm-3,1.21030,R,ugm-3,2.37104,R,ugm-3
03-01-2018,04:00,0.72097,R,ugm-3,1.04501,R,ugm-3,2.15048,R,ugm-3
03-01-2018,05:00,1.18960,R,ugm-3,3.46946,R,ugm-3,5.29349,R,ugm-3
03-01-2018,06:00,2.52339,R,ugm-3,3.18883,R,ugm-3,7.05798,R,ugm-3
03-01-2018,07:00,5.22703,R,ugm-3,6.04615,R,ugm-3,14.06082,R,ugm-3
03-01-2018,08:00,9.62495,R,ugm-3,10.71685,R,ugm-3,25.47490,R,ugm-3
03-01-2018,09:00,10.38197,R,ugm-3,15.89726,R,ugm-3,31.81605,R,ugm-3
03-01-2018,10:00,8.79583,R,ugm-3,12.81525,R,ugm-3,26.30201,R,ugm-3
03-01-2018,11:00,9.58890,R,ugm-3,13.69457,R,ugm-3,28.39734,R,ugm-3
03-01-2018,12:00,11.13898,R,ugm-3,13.35801,R,ugm-3,30.43754,R,ugm-3
03-01-2018,13:00,9.19237,R,ugm-3,12.31752,R,ugm-3,26.41229,R,ugm-3
03-01-2018,14:00,16.72650,R,ugm-3,24.20005,R,ugm-3,49.84699,R,ugm-3
03-01-2018,15:00,13.87867,R,ugm-3,20.13017,R,ugm-3,41.41049,R,ugm-3
03-01-2018,16:00,22.74660,R,ugm-3,29.08532,R,ugm-3,63.96295,R,ugm-3
03-01-2018,17:00,19.39409,R,ugm-3,27.77433,R,ugm-3,57.51151,R,ugm-3
03-01-2018,18:00,14.70778,R,ugm-3,24.92433,R,ugm-3,47.47595,R,ugm-3
03-01-2018,19:00,14.92408,R,ugm-3,26.96373,R,ugm-3,49.84699,R,ugm-3
03-01-2018,20:00,12.22044,R,ugm-3,20.85312,R,ugm-3,39.59086,R,ugm-3
03-01-2018,21:00,6.56083,R,ugm-3,12.38238,R,ugm-3,22.44217,R,ugm-3
03-01-2018,22:00,5.69566,R,ugm-3,10.12482,R,ugm-3,18.85804,R,ugm-3
03-01-2018,23:00,6.34454,R,ugm-3,13.10001,R,ugm-3,22.82816,R,ugm-3
03-01-2018,24:00,3.49670,R,ugm-3,7.15535,R,ugm-3,12.51689,R,ugm-3
04-01-2018,01:00,5.88569,R,ugm-3,9.19970,R,ugm-3,18.22430,R,ugm-3
04-01-2018,02:00,2.02622,R,ugm-3,3.23847,R,ugm-3,6.34530,R,ugm-3
04-01-2018,03:00,1.51967,R,ugm-3,4.86368,R,ugm-3,7.19380,R,ugm-3
04-01-2018,04:00,2.24332,R,ugm-3,14.15744,R,ugm-3,17.59714,R,ugm-3
04-01-2018,05:00,5.57211,R,ugm-3,16.08116,R,ugm-3,24.62493,R,ugm-3
04-01-2018,06:00,8.06870,R,ugm-3,22.04773,R,ugm-3,34.41957,R,ugm-3
04-01-2018,07:00,6.15103,R,ugm-3,18.95640,R,ugm-3,28.38785,R,ugm-3
04-01-2018,08:00,9.37127,R,ugm-3,24.97547,R,ugm-3,39.34456,R,ugm-3
04-01-2018,09:00,13.85791,R,ugm-3,26.50728,R,ugm-3,47.75577,R,ugm-3
04-01-2018,10:00,17.83798,R,ugm-3,34.95819,R,ugm-3,62.30938,R,ugm-3
04-01-2018,11:00,26.99216,R,ugm-3,42.78007,R,ugm-3,84.16747,R,ugm-3
04-01-2018,12:00,36.14634,R,ugm-3,61.89068,R,ugm-3,117.31429,R,ugm-3
04-01-2018,13:00,36.97853,R,ugm-3,56.40906,R,ugm-3,113.10868,R,ugm-3
04-01-2018,14:00,31.94916,R,ugm-3,54.76871,R,ugm-3,103.75674,R,ugm-3
04-01-2018,15:00,19.79184,R,ugm-3,26.87132,R,ugm-3,57.21839,R,ugm-3
04-01-2018,16:00,12.01260,R,ugm-3,19.37607,R,ugm-3,37.79512,R,ugm-3
04-01-2018,17:00,10.02256,R,ugm-3,20.71197,R,ugm-3,36.07968,R,ugm-3
04-01-2018,18:00,18.95964,R,ugm-3,33.07233,R,ugm-3,62.14337,R,ugm-3
04-01-2018,19:00,10.60148,R,ugm-3,19.21560,R,ugm-3,35.47097,R,ugm-3
04-01-2018,20:00,13.82172,R,ugm-3,25.67737,R,ugm-3,46.87038,R,ugm-3
04-01-2018,21:00,17.58470,R,ugm-3,26.38196,R,ugm-3,53.34480,R,ugm-3
04-01-2018,22:00,17.80180,R,ugm-3,30.80807,R,ugm-3,58.10378,R,ugm-3
04-01-2018,23:00,11.86787,R,ugm-3,27.73251,R,ugm-3,45.92965,R,ugm-3
04-01-2018,24:00,11.79550,R,ugm-3,33.15581,R,ugm-3,51.24200,R,ugm-3
05-01-2018,01:00,13.65502,R,ugm-3,31.33802,R,ugm-3,52.27543,R,ugm-3
05-01-2018,02:00,,,,,,,,,
05-01-2018,03:00,2.28794,R,ugm-3,20.53783,R,ugm-3,24.04596,R,ugm-3
05-01-2018,04:00,2.76006,R,ugm-3,12.26139,R,ugm-3,16.49342,R,ugm-3
05-01-2018,05:00,11.87551,R,ugm-3,24.60738,R,ugm-3,42.81624,R,ugm-3
05-01-2018,06:00,21.20886,R,ugm-3,35.67519,R,ugm-3,68.19500,R,ugm-3
05-01-2018,07:00,53.93007,R,ugm-3,49.53337,R,ugm-3,132.22499,R,ugm-3
05-01-2018,08:00,73.10521,R,ugm-3,69.05682,R,ugm-3,181.14991,R,ugm-3
05-01-2018,09:00,62.97289,R,ugm-3,66.98873,R,ugm-3,163.54582,R,ugm-3
05-01-2018,10:00,68.02089,R,ugm-3,66.30132,R,ugm-3,170.59856,R,ugm-3
05-01-2018,11:00,99.79787,R,ugm-3,63.39234,R,ugm-3,216.41361,R,ugm-3
05-01-2018,12:00,73.46837,R,ugm-3,59.72569,R,ugm-3,172.37563,R,ugm-3
05-01-2018,13:00,70.59937,R,ugm-3,60.90384,R,ugm-3,169.15469,R,ugm-3
05-01-2018,14:00,46.26728,R,ugm-3,53.34154,R,ugm-3,124.28372,R,ugm-3
05-01-2018,15:00,47.17520,R,ugm-3,62.61184,R,ugm-3,134.94613,R,ugm-3
05-01-2018,16:00,102.92109,R,ugm-3,79.65062,R,ugm-3,237.46076,R,ugm-3
05-01-2018,17:00,124.60207,R,ugm-3,95.94269,R,ugm-3,286.99654,R,ugm-3
05-01-2018,18:00,134.04437,R,ugm-3,90.01684,R,ugm-3,295.54868,R,ugm-3
05-01-2018,19:00,233.26118,R,ugm-3,107.65209,R,ugm-3,465.31424,R,ugm-3
05-01-2018,20:00,168.72668,R,ugm-3,85.37423,R,ugm-3,344.08486,R,ugm-3
05-01-2018,21:00,140.79925,R,ugm-3,75.43897,R,ugm-3,291.32814,R,ugm-3
05-01-2018,22:00,155.25324,R,ugm-3,81.82066,R,ugm-3,319.87230,R,ugm-3
05-01-2018,23:00,89.81082,R,ugm-3,61.26812,R,ugm-3,198.97612,R,ugm-3
05-01-2018,24:00,93.15194,R,ugm-3,56.36727,R,ugm-3,199.19826,R,ugm-3
06-01-2018,01:00,108.67131,R,ugm-3,61.64241,R,ugm-3,228.26943,R,ugm-3
06-01-2018,02:00,59.53594,R,ugm-3,52.27291,R,ugm-3,143.56007,R,ugm-3
06-01-2018,03:00,13.37736,R,ugm-3,26.35713,R,ugm-3,46.86880,R,ugm-3
06-01-2018,04:00,3.93666,R,ugm-3,10.96147,R,ugm-3,16.99760,R,ugm-3
06-01-2018,05:00,3.57216,R,ugm-3,5.83593,R,ugm-3,11.31316,R,ugm-3
06-01-2018,06:00,2.84315,R,ugm-3,4.33443,R,ugm-3,8.69386,R,ugm-3
06-01-2018,07:00,5.72274,R,ugm-3,5.77074,R,ugm-3,14.54549,R,ugm-3
06-01-2018,08:00,7.18076,R,ugm-3,10.89148,R,ugm-3,21.90183,R,ugm-3
06-01-2018,09:00,10.35196,R,ugm-3,17.95523,R,ugm-3,33.82802,R,ugm-3
06-01-2018,10:00,11.99224,R,ugm-3,19.22980,R,ugm-3,37.61764,R,ugm-3
06-01-2018,11:00,11.70063,R,ugm-3,13.37945,R,ugm-3,31.32017,R,ugm-3
06-01-2018,12:00,16.91307,R,ugm-3,23.61082,R,ugm-3,49.54383,R,ugm-3
06-01-2018,13:00,13.74187,R,ugm-3,17.66167,R,ugm-3,38.73224,R,ugm-3
06-01-2018,14:00,18.33464,R,ugm-3,18.70035,R,ugm-3,46.81307,R,ugm-3
06-01-2018,15:00,19.71976,R,ugm-3,23.09691,R,ugm-3,53.33346,R,ugm-3
06-01-2018,16:00,15.78310,R,ugm-3,18.32146,R,ugm-3,42.52187,R,ugm-3
06-01-2018,17:00,20.77683,R,ugm-3,36.07732,R,ugm-3,67.93468,R,ugm-3
06-01-2018,18:00,29.01466,R,ugm-3,31.47126,R,ugm-3,75.95978,R,ugm-3
06-01-2018,19:00,19.64686,R,ugm-3,28.28011,R,ugm-3,58.40488,R,ugm-3
06-01-2018,20:00,19.97492,R,ugm-3,27.72137,R,ugm-3,58.34915,R,ugm-3
06-01-2018,21:00,16.87662,R,ugm-3,20.54584,R,ugm-3,46.42296,R,ugm-3
06-01-2018,22:00,10.06036,R,ugm-3,20.46435,R,ugm-3,35.89002,R,ugm-3
06-01-2018,23:00,8.09203,R,ugm-3,12.22499,R,ugm-3,24.63259,R,ugm-3
06-01-2018,24:00,5.90499,R,ugm-3,7.21892,R,ugm-3,16.27311,R,ugm-3
07-01-2018,01:00,15.21920,R,ugm-3,12.68076,R,ugm-3,36.01654,R,ugm-3
07-01-2018,02:00,4.34137,R,ugm-3,8.03330,R,ugm-3,14.68998,R,ugm-3
07-01-2018,03:00,3.36578,R,ugm-3,3.11630,R,ugm-3,8.27709,R,ugm-3
07-01-2018,04:00,1.79265,R,ugm-3,5.02507,R,ugm-3,7.77376,R,ugm-3
07-01-2018,05:00,1.28046,R,ugm-3,3.23780,R,ugm-3,5.20115,R,ugm-3
07-01-2018,06:00,2.26825,R,ugm-3,5.69399,R,ugm-3,9.17191,R,ugm-3
07-01-2018,07:00,4.06089,R,ugm-3,7.86681,R,ugm-3,14.09343,R,ugm-3
07-01-2018,08:00,6.29255,R,ugm-3,21.22287,R,ugm-3,30.87132,R,ugm-3
07-01-2018,09:00,11.01197,R,ugm-3,21.48066,R,ugm-3,38.36544,R,ugm-3
07-01-2018,10:00,24.21901,R,ugm-3,31.76591,R,ugm-3,68.90120,R,ugm-3
07-01-2018,11:00,21.65809,R,ugm-3,33.23184,R,ugm-3,66.44044,R,ugm-3
07-01-2018,12:00,13.93873,R,ugm-3,29.18495,R,ugm-3,50.55738,R,ugm-3
07-01-2018,13:00,10.42661,R,ugm-3,17.34483,R,ugm-3,33.33208,R,ugm-3
07-01-2018,14:00,8.37788,R,ugm-3,14.27836,R,ugm-3,27.12426,R,ugm-3
07-01-2018,15:00,8.37788,R,ugm-3,17.01875,R,ugm-3,29.86464,R,ugm-3
07-01-2018,16:00,8.37788,R,ugm-3,18.97617,R,ugm-3,31.82207,R,ugm-3
07-01-2018,17:00,4.90234,R,ugm-3,17.76188,R,ugm-3,25.27869,R,ugm-3
07-01-2018,18:00,4.02431,R,ugm-3,12.73257,R,ugm-3,18.90309,R,ugm-3
07-01-2018,19:00,3.18286,R,ugm-3,14.30240,R,ugm-3,19.18272,R,ugm-3
07-01-2018,20:00,2.56092,R,ugm-3,13.52231,R,ugm-3,17.44901,R,ugm-3
07-01-2018,21:00,3.73163,R,ugm-3,13.57282,R,ugm-3,19.29457,R,ugm-3
07-01-2018,22:00,1.86582,R,ugm-3,13.58146,R,ugm-3,16.44233,R,ugm-3
07-01-2018,23:00,3.43895,R,ugm-3,12.95899,R,ugm-3,18.23197,R,ugm-3
07-01-2018,24:00,1.82923,R,ugm-3,19.34203,R,ugm-3,22.14682,R,ugm-3
08-01-2018,01:00,4.84686,R,ugm-3,22.57522,R,ugm-3,30.00697,R,ugm-3
08-01-2018,02:00,1.07708,R,ugm-3,10.92000,R,ugm-3,12.57150,R,ugm-3
08-01-2018,03:00,0.55078,R,ugm-3,12.84944,R,ugm-3,13.69395,R,ugm-3
08-01-2018,04:00,1.06484,R,ugm-3,9.64794,R,ugm-3,11.28068,R,ugm-3
08-01-2018,05:00,1.13828,R,ugm-3,9.98432,R,ugm-3,11.72966,R,ugm-3
08-01-2018,06:00,2.46015,R,ugm-3,12.33506,R,ugm-3,16.10723,R,ugm-3
08-01-2018,07:00,5.10389,R,ugm-3,12.93956,R,ugm-3,20.76542,R,ugm-3
08-01-2018,08:00,6.97654,R,ugm-3,19.38459,R,ugm-3,30.08180,R,ugm-3
08-01-2018,09:00,6.46248,R,ugm-3,19.38708,R,ugm-3,29.29608,R,ugm-3
08-01-2018,10:00,6.86638,R,ugm-3,28.30864,R,ugm-3,38.83695,R,ugm-3
08-01-2018,11:00,15.71558,R,ugm-3,34.15854,R,ugm-3,58.25542,R,ugm-3
08-01-2018,12:00,30.88037,R,ugm-3,48.84516,R,ugm-3,96.19440,R,ugm-3
08-01-2018,13:00,24.30773,R,ugm-3,50.39241,R,ugm-3,87.66374,R,ugm-3
08-01-2018,14:00,14.32027,R,ugm-3,28.32855,R,ugm-3,50.28599,R,ugm-3
08-01-2018,15:00,14.46714,R,ugm-3,30.96561,R,ugm-3,53.14825,R,ugm-3
08-01-2018,16:00,16.70698,R,ugm-3,32.52617,R,ugm-3,58.14318,R,ugm-3
08-01-2018,17:00,9.58356,R,ugm-3,22.57092,R,ugm-3,37.26551,R,ugm-3
08-01-2018,18:00,11.30934,R,ugm-3,24.07785,R,ugm-3,41.41859,R,ugm-3
08-01-2018,19:00,14.39370,R,ugm-3,22.43531,R,ugm-3,44.50535,R,ugm-3
08-01-2018,20:00,9.91403,R,ugm-3,25.37545,R,ugm-3,40.57675,R,ugm-3
08-01-2018,21:00,12.77808,R,ugm-3,28.61666,R,ugm-3,48.20945,R,ugm-3
08-01-2018,22:00,6.13201,R,ugm-3,24.32749,R,ugm-3,33.72978,R,ugm-3
08-01-2018,23:00,5.65467,R,ugm-3,15.18180,R,ugm-3,23.85217,R,ugm-3
08-01-2018,24:00,1.87265,R,ugm-3,9.02667,R,ugm-3,11.89802,R,ugm-3
09-01-2018,01:00,1.86720,R,ugm-3,9.22686,R,ugm-3,12.08986,R,ugm-3
09-01-2018,02:00,2.16202,R,ugm-3,8.02388,R,ugm-3,11.33894,R,ugm-3
09-01-2018,03:00,1.25299,R,ugm-3,9.34262,R,ugm-3,11.26384,R,ugm-3
09-01-2018,04:00,1.51096,R,ugm-3,9.79186,R,ugm-3,12.10863,R,ugm-3
09-01-2018,05:00,1.91634,R,ugm-3,11.08514,R,ugm-3,14.02349,R,ugm-3
09-01-2018,06:00,4.23806,R,ugm-3,16.98685,R,ugm-3,23.48511,R,ugm-3
09-01-2018,07:00,11.71915,R,ugm-3,21.67962,R,ugm-3,39.64873,R,ugm-3
09-01-2018,08:00,10.06078,R,ugm-3,19.49160,R,ugm-3,34.91791,R,ugm-3
09-01-2018,09:00,8.91834,R,ugm-3,22.25706,R,ugm-3,35.93166,R,ugm-3
09-01-2018,10:00,12.12453,R,ugm-3,25.78886,R,ugm-3,44.37954,R,ugm-3
09-01-2018,11:00,29.70324,R,ugm-3,30.65556,R,ugm-3,76.19989,R,ugm-3
09-01-2018,12:00,20.30582,R,ugm-3,28.28162,R,ugm-3,59.41677,R,ugm-3
09-01-2018,13:00,27.49209,R,ugm-3,33.70804,R,ugm-3,75.86198,R,ugm-3
09-01-2018,14:00,39.50605,R,ugm-3,42.71434,R,ugm-3,103.28944,R,ugm-3
09-01-2018,15:00,37.36860,R,ugm-3,33.77045,R,ugm-3,91.06817,R,ugm-3
09-01-2018,16:00,26.31280,R,ugm-3,37.88166,R,ugm-3,78.22739,R,ugm-3
09-01-2018,17:00,29.26101,R,ugm-3,37.07819,R,ugm-3,81.94445,R,ugm-3
09-01-2018,18:00,27.27097,R,ugm-3,37.59519,R,ugm-3,79.41009,R,ugm-3
09-01-2018,19:00,35.59967,R,ugm-3,46.95814,R,ugm-3,101.54354,R,ugm-3
09-01-2018,20:00,34.19927,R,ugm-3,44.88145,R,ugm-3,97.31960,R,ugm-3
09-01-2018,21:00,9.87651,R,ugm-3,29.23576,R,ugm-3,44.37954,R,ugm-3
09-01-2018,22:00,9.54484,R,ugm-3,34.81305,R,ugm-3,49.44827,R,ugm-3
09-01-2018,23:00,10.72412,R,ugm-3,35.87712,R,ugm-3,52.32055,R,ugm-3
09-01-2018,24:00,5.08567,R,ugm-3,26.61312,R,ugm-3,34.41104,R,ugm-3
10-01-2018,01:00,4.19183,R,ugm-3,24.01573,R,ugm-3,30.44311,R,ugm-3
10-01-2018,02:00,,,,,,,,,
10-01-2018,03:00,1.36851,R,ugm-3,21.80778,R,ugm-3,23.90613,R,ugm-3
10-01-2018,04:00,2.18222,R,ugm-3,22.48165,R,ugm-3,25.82766,R,ugm-3
10-01-2018,05:00,11.46587,R,ugm-3,31.81394,R,ugm-3,49.39469,R,ugm-3
10-01-2018,06:00,84.95842,R,ugm-3,47.64356,R,ugm-3,177.91133,R,ugm-3
10-01-2018,07:00,194.43902,R,ugm-3,63.11248,R,ugm-3,361.24816,R,ugm-3
10-01-2018,08:00,152.38515,R,ugm-3,66.16165,R,ugm-3,299.81562,R,ugm-3
10-01-2018,09:00,128.60271,R,ugm-3,59.56261,R,ugm-3,256.75069,R,ugm-3
10-01-2018,10:00,129.41642,R,ugm-3,65.60546,R,ugm-3,264.04121,R,ugm-3
10-01-2018,11:00,155.34409,R,ugm-3,67.27624,R,ugm-3,305.46719,R,ugm-3
10-01-2018,12:00,133.26304,R,ugm-3,60.44210,R,ugm-3,264.77591,R,ugm-3
10-01-2018,13:00,95.37634,R,ugm-3,67.23684,R,ugm-3,213.47852,R,ugm-3
10-01-2018,14:00,,,,,,,,,
10-01-2018,15:00,,,,,,,,,
10-01-2018,16:00,103.67369,R,ugm-3,82.01871,R,ugm-3,240.98281,R,ugm-3
10-01-2018,17:00,77.08026,R,ugm-3,80.74707,R,ugm-3,198.93516,R,ugm-3
10-01-2018,18:00,86.32693,R,ugm-3,92.79231,R,ugm-3,225.15842,R,ugm-3
10-01-2018,19:00,58.84582,R,ugm-3,60.61132,R,ugm-3,150.84032,R,ugm-3
10-01-2018,20:00,71.71719,R,ugm-3,75.01096,R,ugm-3,184.97578,R,ugm-3
10-01-2018,21:00,73.82543,R,ugm-3,70.64806,R,ugm-3,183.84547,R,ugm-3
10-01-2018,22:00,40.05658,R,ugm-3,53.08151,R,ugm-3,114.50075,R,ugm-3
10-01-2018,23:00,39.53877,R,ugm-3,37.14684,R,ugm-3,97.77211,R,ugm-3
10-01-2018,24:00,22.78380,R,ugm-3,28.58894,R,ugm-3,63.52361,R,ugm-3
11-01-2018,01:00,65.76165,R,ugm-3,43.03075,R,ugm-3,143.86388,R,ugm-3
11-01-2018,02:00,34.36417,R,ugm-3,32.43288,R,ugm-3,85.12387,R,ugm-3
11-01-2018,03:00,25.66188,R,ugm-3,30.22182,R,ugm-3,69.56949,R,ugm-3
11-01-2018,04:00,28.59149,R,ugm-3,29.58534,R,ugm-3,73.42501,R,ugm-3
11-01-2018,05:00,41.90451,R,ugm-3,29.13032,R,ugm-3,93.38301,R,ugm-3
11-01-2018,06:00,101.38667,R,ugm-3,42.93188,R,ugm-3,198.38927,R,ugm-3
11-01-2018,07:00,260.14173,R,ugm-3,67.35622,R,ugm-3,466.23464,R,ugm-3
11-01-2018,08:00,279.09147,R,ugm-3,89.32932,R,ugm-3,517.26360,R,ugm-3
11-01-2018,09:00,244.08451,R,ugm-3,84.54939,R,ugm-3,458.80709,R,ugm-3
11-01-2018,10:00,343.65408,R,ugm-3,95.22756,R,ugm-3,622.15647,R,ugm-3
11-01-2018,11:00,316.54594,R,ugm-3,90.98013,R,ugm-3,576.34380,R,ugm-3
11-01-2018,12:00,270.33973,R,ugm-3,91.01180,R,ugm-3,505.52694,R,ugm-3
11-01-2018,13:00,249.20205,R,ugm-3,90.19693,R,ugm-3,472.30141,R,ugm-3
11-01-2018,14:00,284.24609,R,ugm-3,95.71378,R,ugm-3,531.55171,R,ugm-3
11-01-2018,15:00,221.31516,R,ugm-3,89.35482,R,ugm-3,428.70000,R,ugm-3
11-01-2018,16:00,253.87459,R,ugm-3,96.69689,R,ugm-3,485.96584,R,ugm-3
11-01-2018,17:00,249.53581,R,ugm-3,93.71080,R,ugm-3,476.32703,R,ugm-3
11-01-2018,18:00,207.59421,R,ugm-3,81.76039,R,ugm-3,400.06708,R,ugm-3
11-01-2018,19:00,249.12789,R,ugm-3,92.23841,R,ugm-3,474.22917,R,ugm-3
11-01-2018,20:00,247.60746,R,ugm-3,84.87420,R,ugm-3,464.53367,R,ugm-3
11-01-2018,21:00,272.37933,R,ugm-3,96.55938,R,ugm-3,514.20186,R,ugm-3
11-01-2018,22:00,274.04809,R,ugm-3,95.36142,R,ugm-3,515.56263,R,ugm-3
11-01-2018,23:00,238.48488,R,ugm-3,94.15595,R,ugm-3,459.82767,R,ugm-3
11-01-2018,24:00,163.27926,R,ugm-3,56.83632,R,ugm-3,307.19436,R,ugm-3
12-01-2018,01:00,35.84209,R,ugm-3,37.49516,R,ugm-3,92.45226,R,ugm-3
12-01-2018,02:00,,,,,,,,,
12-01-2018,03:00,25.39434,R,ugm-3,34.55413,R,ugm-3,73.49158,R,ugm-3
12-01-2018,04:00,12.60422,R,ugm-3,27.82900,R,ugm-3,47.15520,R,ugm-3
12-01-2018,05:00,10.37339,R,ugm-3,23.62738,R,ugm-3,39.53301,R,ugm-3
12-01-2018,06:00,13.75682,R,ugm-3,26.85806,R,ugm-3,47.95155,R,ugm-3
12-01-2018,07:00,20.07752,R,ugm-3,29.05480,R,ugm-3,59.83990,R,ugm-3
12-01-2018,08:00,26.84439,R,ugm-3,39.78231,R,ugm-3,80.94313,R,ugm-3
12-01-2018,09:00,20.41214,R,ugm-3,36.61896,R,ugm-3,67.91714,R,ugm-3
12-01-2018,10:00,30.00474,R,ugm-3,40.45406,R,ugm-3,86.46068,R,ugm-3
12-01-2018,11:00,27.17901,R,ugm-3,35.00307,R,ugm-3,76.67698,R,ugm-3
12-01-2018,12:00,20.70959,R,ugm-3,33.03437,R,ugm-3,64.78863,R,ugm-3
12-01-2018,13:00,21.60192,R,ugm-3,31.04044,R,ugm-3,64.16293,R,ugm-3
12-01-2018,14:00,21.75064,R,ugm-3,35.36297,R,ugm-3,68.71349,R,ugm-3
12-01-2018,15:00,28.85214,R,ugm-3,39.09284,R,ugm-3,83.33217,R,ugm-3
12-01-2018,16:00,32.64456,R,ugm-3,52.10583,R,ugm-3,102.16012,R,ugm-3
12-01-2018,17:00,21.34166,R,ugm-3,42.24709,R,ugm-3,74.97051,R,ugm-3
12-01-2018,18:00,22.41990,R,ugm-3,35.47444,R,ugm-3,69.85113,R,ugm-3
12-01-2018,19:00,20.67241,R,ugm-3,38.43829,R,ugm-3,70.13554,R,ugm-3
12-01-2018,20:00,17.32615,R,ugm-3,33.78543,R,ugm-3,60.35183,R,ugm-3
12-01-2018,21:00,16.73127,R,ugm-3,34.64070,R,ugm-3,60.29495,R,ugm-3
12-01-2018,22:00,17.69796,R,ugm-3,34.40986,R,ugm-3,61.54636,R,ugm-3
12-01-2018,23:00,9.33233,R,ugm-3,28.40903,R,ugm-3,42.71840,R,ugm-3
12-01-2018,24:00,5.53991,R,ugm-3,31.60742,R,ugm-3,40.10183,R,ugm-3
13-01-2018,01:00,4.22479,R,ugm-3,27.00034,R,ugm-3,33.47826,R,ugm-3
13-01-2018,02:00,,,,,,,,,
13-01-2018,03:00,1.64021,R,ugm-3,18.48504,R,ugm-3,21.00000,R,ugm-3
13-01-2018,04:00,1.30471,R,ugm-3,11.75218,R,ugm-3,13.75272,R,ugm-3
13-01-2018,05:00,1.00649,R,ugm-3,8.55727,R,ugm-3,10.10054,R,ugm-3
13-01-2018,06:00,2.27393,R,ugm-3,9.75248,R,ugm-3,13.23913,R,ugm-3
13-01-2018,07:00,4.95791,R,ugm-3,14.13982,R,ugm-3,21.74185,R,ugm-3
13-01-2018,08:00,4.92064,R,ugm-3,16.93611,R,ugm-3,24.48098,R,ugm-3
13-01-2018,09:00,6.67268,R,ugm-3,18.41544,R,ugm-3,28.64674,R,ugm-3
13-01-2018,10:00,9.95310,R,ugm-3,19.43444,R,ugm-3,34.69565,R,ugm-3
13-01-2018,11:00,11.63059,R,ugm-3,22.79710,R,ugm-3,40.63043,R,ugm-3
13-01-2018,12:00,15.24651,R,ugm-3,24.27179,R,ugm-3,47.64945,R,ugm-3
13-01-2018,13:00,13.04714,R,ugm-3,24.96205,R,ugm-3,44.96739,R,ugm-3
13-01-2018,14:00,12.67436,R,ugm-3,25.07711,R,ugm-3,44.51086,R,ugm-3
13-01-2018,15:00,14.79918,R,ugm-3,29.52290,R,ugm-3,52.21467,R,ugm-3
13-01-2018,16:00,15.58201,R,ugm-3,32.83073,R,ugm-3,56.72282,R,ugm-3
13-01-2018,17:00,11.66787,R,ugm-3,32.61223,R,ugm-3,50.50271,R,ugm-3
13-01-2018,18:00,16.88673,R,ugm-3,34.19705,R,ugm-3,60.08967,R,ugm-3
13-01-2018,19:00,9.61761,R,ugm-3,30.39179,R,ugm-3,45.13858,R,ugm-3
13-01-2018,20:00,12.41342,R,ugm-3,31.01254,R,ugm-3,50.04619,R,ugm-3
13-01-2018,21:00,12.41342,R,ugm-3,26.84678,R,ugm-3,45.88043,R,ugm-3
13-01-2018,22:00,6.11352,R,ugm-3,23.83802,R,ugm-3,33.21195,R,ugm-3
13-01-2018,23:00,5.74074,R,ugm-3,24.18134,R,ugm-3,32.98369,R,ugm-3
13-01-2018,24:00,9.09572,R,ugm-3,25.71374,R,ugm-3,39.66032,R,ugm-3
14-01-2018,01:00,5.53143,R,ugm-3,18.69250,R,ugm-3,27.17390,R,ugm-3
14-01-2018,02:00,5.33209,R,ugm-3,22.35671,R,ugm-3,30.53247,R,ugm-3
14-01-2018,03:00,3.10208,R,ugm-3,17.79940,R,ugm-3,22.55587,R,ugm-3
14-01-2018,04:00,1.42023,R,ugm-3,12.36344,R,ugm-3,14.54109,R,ugm-3
14-01-2018,05:00,1.00911,R,ugm-3,12.07784,R,ugm-3,13.62512,R,ugm-3
14-01-2018,06:00,1.45761,R,ugm-3,13.85183,R,ugm-3,16.08680,R,ugm-3
14-01-2018,07:00,1.94347,R,ugm-3,14.42356,R,ugm-3,17.40351,R,ugm-3
14-01-2018,08:00,5.45668,R,ugm-3,16.99425,R,ugm-3,25.36104,R,ugm-3
14-01-2018,09:00,4.14857,R,ugm-3,15.50784,R,ugm-3,21.86889,R,ugm-3
14-01-2018,10:00,6.42841,R,ugm-3,18.93918,R,ugm-3,28.79594,R,ugm-3
14-01-2018,11:00,10.50223,R,ugm-3,22.42497,R,ugm-3,38.52817,R,ugm-3
14-01-2018,12:00,12.52046,R,ugm-3,28.83364,R,ugm-3,48.03140,R,ugm-3
14-01-2018,13:00,12.78208,R,ugm-3,27.97450,R,ugm-3,47.57341,R,ugm-3
14-01-2018,14:00,12.63258,R,ugm-3,24.48258,R,ugm-3,43.85227,R,ugm-3
14-01-2018,15:00,12.55783,R,ugm-3,29.46331,R,ugm-3,48.71838,R,ugm-3
14-01-2018,16:00,10.61436,R,ugm-3,32.32876,R,ugm-3,48.60388,R,ugm-3
14-01-2018,17:00,10.95073,R,ugm-3,33.70220,R,ugm-3,50.49308,R,ugm-3
14-01-2018,18:00,11.69822,R,ugm-3,28.49143,R,ugm-3,46.42844,R,ugm-3
14-01-2018,19:00,8.48401,R,ugm-3,25.92027,R,ugm-3,38.92891,R,ugm-3
14-01-2018,20:00,6.35366,R,ugm-3,24.20615,R,ugm-3,33.94829,R,ugm-3
14-01-2018,21:00,5.53143,R,ugm-3,19.34132,R,ugm-3,27.82272,R,ugm-3
14-01-2018,22:00,4.55969,R,ugm-3,20.14431,R,ugm-3,27.13574,R,ugm-3
14-01-2018,23:00,2.16772,R,ugm-3,17.34288,R,ugm-3,20.66667,R,ugm-3
14-01-2018,24:00,2.24247,R,ugm-3,14.88108,R,ugm-3,18.31948,R,ugm-3
15-01-2018,01:00,3.29749,R,ugm-3,11.33107,R,ugm-3,16.38714,R,ugm-3
15-01-2018,02:00,1.49886,R,ugm-3,9.49440,R,ugm-3,11.79262,R,ugm-3
15-01-2018,03:00,0.71196,R,ugm-3,7.63795,R,ugm-3,8.72960,R,ugm-3
15-01-2018,04:00,1.04920,R,ugm-3,7.81003,R,ugm-3,9.41878,R,ugm-3
15-01-2018,05:00,1.98599,R,ugm-3,7.63714,R,ugm-3,10.68227,R,ugm-3
15-01-2018,06:00,5.09612,R,ugm-3,19.00661,R,ugm-3,26.82054,R,ugm-3
15-01-2018,07:00,11.80350,R,ugm-3,25.72183,R,ugm-3,43.82029,R,ugm-3
15-01-2018,08:00,15.51318,R,ugm-3,36.97606,R,ugm-3,60.76260,R,ugm-3
15-01-2018,09:00,17.83641,R,ugm-3,46.33593,R,ugm-3,73.68470,R,ugm-3
15-01-2018,10:00,31.51348,R,ugm-3,55.17169,R,ugm-3,103.49169,R,ugm-3
15-01-2018,11:00,31.92567,R,ugm-3,56.60722,R,ugm-3,105.55923,R,ugm-3
15-01-2018,12:00,29.30267,R,ugm-3,36.45040,R,ugm-3,81.38053,R,ugm-3
15-01-2018,13:00,31.28865,R,ugm-3,38.74640,R,ugm-3,86.72167,R,ugm-3
15-01-2018,14:00,23.04494,R,ugm-3,32.49161,R,ugm-3,67.82668,R,ugm-3
15-01-2018,15:00,18.36101,R,ugm-3,25.77509,R,ugm-3,53.92824,R,ugm-3
15-01-2018,16:00,39.08271,R,ugm-3,35.35298,R,ugm-3,95.27897,R,ugm-3
15-01-2018,17:00,24.01919,R,ugm-3,37.71726,R,ugm-3,74.54618,R,ugm-3
15-01-2018,18:00,16.18766,R,ugm-3,30.14128,R,ugm-3,54.96201,R,ugm-3